Zurück zum Katalog

SCOUT A DEB

AktivPO
NORAD 2989·DEBRIS·🇺🇸 United States

Gestartet Jan 28, 1966 von Vandenberg Space Force Base

Loading…

Nächste Überflüge (nächste 24 Stunden)

TLE

AktuellSource: Space-Track

Epoche: Sep 13, 2026, 11:59 UTC

1 02989U 66005F   26256.49975458  .00000312  00000-0  19251-3 0  9994
2 02989  89.6552 280.9644 0107182 335.2936  24.3130 14.00727384  9354

Verfolge SCOUT A DEB in Echtzeit mit AllMySat

Download on the App Store